Regional Weather Roundup
Issued by NWS

Home | Current Version | Previous Version | Text Only | Print | Product List | Glossary On
Versions: 1 2 3 4 5 6 7 8 9 10 11 12 13 14 15 16 17 18 19 20 21 22 23 24 25 26 27 28 29 30 31 32 33 34 35 36 37 38 39 40 41 42 43 44 45 46 47 48 49 50
754
ASCA42 TJSJ 101810
RWRPR
PUERTO RICO/U.S. VIRGIN ISLANDS HOURLY WEATHER ROUNDUP
NATIONAL WEATHER SERVICE SAN JUAN PR
200 PM AST WED FEB 10 2016

PRZ001-004-101900-
PUERTO RICO

CITY           SKY/WX    TMP DP  RH WIND       PRES   REMARKS
SAN JUAN LMM   MOSUNNY   82  70  65 NE8       30.05F
MAYAGUEZ       PTSUNNY   84  72  65 W13       30.08
AGUADILLA      PTSUNNY   82  72  69 NE8       30.08F
CEIBA          MOSUNNY   84  72  65 E13       30.09F
$$

PRZ006-007-101900-
U.S. VIRGIN ISLANDS

CITY           SKY/WX    TMP DP  RH WIND       PRES   REMARKS
CHARLOTTE AMA  SUNNY     82  70  65 E16       30.06F
CHRISTIANSTED  MOSUNNY   84  70  61 E14       30.07F
$$

HOURLY WEATHER ROUNDUP FOR THE NEWS MEDIA

CITY           SKY/WX    TMP DP  RH WIND       PRES   REMARKS
ORLANDO        SUNNY     58  26  29 W13G24    30.18F
NEW YORK       PTSUNNY   39  28  64 W14       29.62F WCI  31
NEWARK         PTSUNNY   40  23  50 W14G22    29.61F WCI  32
CHICAGO        PTSUNNY   14   3  61 NW10      30.02F WCI   1
HARTFORD       CLOUDY    34  29  82 SE5       29.55F WCI  30
BOSTON         CLOUDY    33  29  85 S6        29.55F WCI  28
DALLAS         SUNNY     57  27  31 SW9       30.29F
PHILADELPHIA   CLOUDY    35  18  49 W16G26    29.72F WCI  25
LOS ANGELES    MOSUNNY   78  28  16 E5        30.16S
WASHINGTON DC  FAIR      35  15  44 NW17      29.79S WCI  25



USA.gov is the U.S. government's official web portal to all federal, state and local government web resources and services.